When you browse on this site, cookies collect data to enhance your experience and personalize the content and advertising you see.
Visit our Privacy Policy to learn more. By continuing to use the site, you agree to this use of cookies and data.
  • In Österreich
  • Länderverzeichnis
  • Für 7 Tage
  • Wassertemperatur
  • Satellitenkarten
  • Wetterkarte
  • News
  • Widgets
  • user-avatar
    Anmelden

    Stündliche Wetter Kozak

    Heute, 10 Dezember, Montag

    Zeit Temperatur Niederschläge Wind Luftdruck Luftfeuchtigkeit
    00:00 0°C° 0.2 mm 4 m/S 731 mmHg 88%
    01:00 0°C° 0.2 mm 4 m/S 731 mmHg 89%
    02:00 0°C° 0 mm 3 m/S 730 mmHg 91%
    03:00 0°C° 0.1 mm 3 m/S 730 mmHg 91%
    04:00 0°C° 0.1 mm 3 m/S 730 mmHg 91%
    05:00 0°C° 0.1 mm 3 m/S 731 mmHg 91%
    06:00 0°C° 0 mm 3 m/S 731 mmHg 91%
    07:00 0°C° 0 mm 3 m/S 731 mmHg 92%
    08:00 0°C° 0 mm 3 m/S 731 mmHg 92%
    09:00 0°C° 0 mm 3 m/S 731 mmHg 91%
    10:00 +1°C° 0 mm 3 m/S 731 mmHg 90%
    11:00 +1°C° 0 mm 3 m/S 732 mmHg 89%
    12:00 +1°C° 0 mm 3 m/S 732 mmHg 89%
    13:00 +2°C° 0 mm 3 m/S 732 mmHg 89%
    14:00 +2°C° 0 mm 3 m/S 732 mmHg 89%
    15:00 +1°C° 0 mm 3 m/S 732 mmHg 90%
    16:00 +1°C° 0 mm 3 m/S 732 mmHg 92%
    17:00 +1°C° 0 mm 3 m/S 733 mmHg 93%
    18:00 0°C° 0 mm 3 m/S 733 mmHg 93%
    19:00 0°C° 0 mm 3 m/S 733 mmHg 92%
    20:00 -1°C° 0 mm 4 m/S 733 mmHg 92%
    21:00 0°C° 0 mm 3 m/S 734 mmHg 93%
    22:00 0°C° 0 mm 3 m/S 734 mmHg 93%
    23:00 0°C° 0 mm 3 m/S 734 mmHg 93%

    Morgen, 11 Dezember, Dienstag

    Zeit Temperatur Niederschläge Wind Luftdruck Luftfeuchtigkeit
    00:00 -1°C° 0 mm 3 m/S 735 mmHg 93%
    01:00 -1°C° 0 mm 3 m/S 735 mmHg 93%
    02:00 -1°C° 0 mm 3 m/S 735 mmHg 92%
    03:00 -1°C° 0 mm 3 m/S 735 mmHg 93%
    04:00 -2°C° 0 mm 3 m/S 736 mmHg 93%
    05:00 -2°C° 0 mm 3 m/S 736 mmHg 93%
    06:00 -2°C° 0 mm 2 m/S 736 mmHg 94%
    07:00 -2°C° 0 mm 2 m/S 736 mmHg 94%
    08:00 -3°C° 0 mm 2 m/S 737 mmHg 95%
    09:00 -2°C° 0 mm 2 m/S 737 mmHg 93%
    10:00 -1°C° 0 mm 2 m/S 738 mmHg 90%
    11:00 -1°C° 0 mm 2 m/S 738 mmHg 88%
    12:00 +1°C° 0 mm 2 m/S 738 mmHg 87%
    13:00 +1°C° 0 mm 2 m/S 738 mmHg 86%
    14:00 +1°C° 0 mm 2 m/S 738 mmHg 85%
    15:00 -1°C° 0 mm 2 m/S 739 mmHg 88%
    16:00 +1°C° 0 mm 1 m/S 739 mmHg 90%
    17:00 0°C° 0 mm 1 m/S 739 mmHg 92%
    18:00 0°C° 0 mm 1 m/S 739 mmHg 93%
    19:00 0°C° 0 mm 1 m/S 739 mmHg 93%
    20:00 0°C° 0 mm 1 m/S 740 mmHg 94%
    21:00 0°C° 0 mm 1 m/S 740 mmHg 94%
    22:00 -1°C° 0 mm 1 m/S 740 mmHg 94%
    23:00 -1°C° 0 mm 1 m/S 740 mmHg 94%

    übermorgen, 12 Dezember, Mittwoch

    Zeit Temperatur Niederschläge Wind Luftdruck Luftfeuchtigkeit
    00:00 -1°C° 0 mm 1 m/S 740 mmHg 95%
    01:00 -1°C° 0 mm 1 m/S 740 mmHg 95%
    02:00 -1°C° 0 mm 1 m/S 741 mmHg 95%
    03:00 -1°C° 0 mm 1 m/S 740 mmHg 95%
    04:00 -1°C° 0 mm 1 m/S 740 mmHg 95%
    05:00 -1°C° 0 mm 1 m/S 740 mmHg 96%
    06:00 -3°C° 0 mm 2 m/S 740 mmHg 95%
    07:00 -3°C° 0 mm 2 m/S 741 mmHg 95%
    08:00 -3°C° 0 mm 2 m/S 741 mmHg 95%
    09:00 -2°C° 0 mm 3 m/S 741 mmHg 92%
    10:00 -2°C° 0 mm 3 m/S 741 mmHg 89%
    11:00 -2°C° 0 mm 4 m/S 741 mmHg 86%
    12:00 -2°C° 0.1 mm 4 m/S 740 mmHg 85%
    13:00 -2°C° 0.1 mm 4 m/S 740 mmHg 84%
    14:00 -2°C° 0.1 mm 5 m/S 740 mmHg 84%
    15:00 -2°C° 0.3 mm 5 m/S 740 mmHg 86%
    16:00 -2°C° 0.3 mm 5 m/S 740 mmHg 88%
    17:00 -4°C° 0.3 mm 5 m/S 739 mmHg 90%
    18:00 -4°C° 0.6 mm 5 m/S 739 mmHg 91%
    19:00 -4°C° 0.6 mm 6 m/S 739 mmHg 91%
    20:00 -4°C° 0.6 mm 6 m/S 739 mmHg 92%
    21:00 -4°C° 0.6 mm 6 m/S 739 mmHg 92%
    22:00 -4°C° 0.6 mm 6 m/S 738 mmHg 92%
    23:00 -4°C° 0.6 mm 6 m/S 738 mmHg 92%

    13 Dezember, Donnerstag

    Zeit Temperatur Niederschläge Wind Luftdruck Luftfeuchtigkeit
    00:00 -4°C° 0.5 mm 5 m/S 738 mmHg 92%
    01:00 -4°C° 0.5 mm 5 m/S 738 mmHg 93%
    02:00 -4°C° 0.5 mm 5 m/S 738 mmHg 93%
    03:00 -4°C° 0.5 mm 5 m/S 738 mmHg 93%
    04:00 -4°C° 0.5 mm 5 m/S 738 mmHg 93%
    05:00 -4°C° 0.5 mm 5 m/S 737 mmHg 94%
    06:00 -4°C° 0.5 mm 5 m/S 737 mmHg 94%
    07:00 -2°C° 0.5 mm 4 m/S 737 mmHg 94%
    08:00 -2°C° 0.5 mm 4 m/S 737 mmHg 94%
    09:00 -2°C° 0.4 mm 4 m/S 737 mmHg 94%
    10:00 -2°C° 0.4 mm 4 m/S 737 mmHg 93%
    11:00 -2°C° 0.4 mm 4 m/S 737 mmHg 93%
    12:00 -2°C° 0.3 mm 4 m/S 737 mmHg 93%
    13:00 -2°C° 0.3 mm 4 m/S 737 mmHg 93%
    14:00 -2°C° 0.3 mm 4 m/S 737 mmHg 93%
    15:00 -2°C° 0.2 mm 4 m/S 737 mmHg 93%
    16:00 -2°C° 0.2 mm 4 m/S 738 mmHg 93%
    17:00 -2°C° 0.2 mm 4 m/S 738 mmHg 93%
    18:00 -2°C° 0.2 mm 4 m/S 738 mmHg 93%
    19:00 -2°C° 0.2 mm 4 m/S 738 mmHg 93%
    20:00 -2°C° 0.2 mm 4 m/S 739 mmHg 93%
    21:00 -2°C° 0.2 mm 4 m/S 739 mmHg 93%
    22:00 -2°C° 0.2 mm 4 m/S 740 mmHg 94%
    23:00 -2°C° 0.2 mm 4 m/S 740 mmHg 94%

    14 Dezember, Freitag

    Zeit Temperatur Niederschläge Wind Luftdruck Luftfeuchtigkeit
    00:00 -2°C° 0.2 mm 4 m/S 740 mmHg 94%
    01:00 -2°C° 0.2 mm 4 m/S 741 mmHg 94%
    02:00 -2°C° 0.2 mm 4 m/S 741 mmHg 94%
    03:00 -2°C° 0.1 mm 4 m/S 742 mmHg 94%
    04:00 -1°C° 0.1 mm 3 m/S 742 mmHg 94%
    05:00 -2°C° 0.1 mm 3 m/S 742 mmHg 94%
    06:00 -2°C° 0.1 mm 3 m/S 743 mmHg 94%
    07:00 -2°C° 0.1 mm 3 m/S 743 mmHg 95%
    08:00 -2°C° 0.1 mm 3 m/S 744 mmHg 95%
    09:00 -2°C° 0.1 mm 3 m/S 744 mmHg 94%
    10:00 -2°C° 0.1 mm 3 m/S 745 mmHg 93%
    11:00 -1°C° 0.1 mm 3 m/S 746 mmHg 93%
    12:00 -1°C° 0.1 mm 3 m/S 746 mmHg 92%
    13:00 -1°C° 0.1 mm 3 m/S 747 mmHg 92%
    14:00 -1°C° 0.1 mm 3 m/S 747 mmHg 91%
    15:00 -1°C° 0 mm 3 m/S 747 mmHg 92%
    16:00 -2°C° 0 mm 3 m/S 748 mmHg 93%
    17:00 -2°C° 0 mm 3 m/S 748 mmHg 94%
    18:00 -2°C° 0 mm 2 m/S 749 mmHg 94%
    19:00 -2°C° 0 mm 2 m/S 749 mmHg 95%
    20:00 -2°C° 0 mm 2 m/S 750 mmHg 96%
    21:00 -2°C° 0 mm 2 m/S 750 mmHg 96%
    22:00 -2°C° 0 mm 2 m/S 751 mmHg 96%
    23:00 -2°C° 0 mm 2 m/S 751 mmHg 96%

    15 Dezember, Samstag

    Zeit Temperatur Niederschläge Wind Luftdruck Luftfeuchtigkeit
    00:00 -2°C° 0 mm 2 m/S 751 mmHg 96%
    01:00 0°C° 0 mm 1 m/S 752 mmHg 96%
    02:00 0°C° 0 mm 1 m/S 752 mmHg 96%
    03:00 -1°C° 0 mm 1 m/S 752 mmHg 96%
    04:00 -1°C° 0 mm 1 m/S 752 mmHg 96%
    05:00 -3°C° 0 mm 2 m/S 753 mmHg 96%
    06:00 -3°C° 0 mm 2 m/S 753 mmHg 96%
    07:00 -3°C° 0 mm 2 m/S 753 mmHg 96%
    08:00 -3°C° 0 mm 2 m/S 754 mmHg 96%
    09:00 -3°C° 0 mm 2 m/S 754 mmHg 95%
    10:00 -3°C° 0 mm 2 m/S 754 mmHg 94%
    11:00 -3°C° 0 mm 2 m/S 755 mmHg 93%
    12:00 -1°C° 0 mm 1 m/S 755 mmHg 93%
    13:00 -1°C° 0 mm 1 m/S 755 mmHg 92%
    14:00 -1°C° 0 mm 1 m/S 755 mmHg 92%
    15:00 -1°C° 0 mm 1 m/S 755 mmHg 93%
    16:00 -1°C° 0 mm 1 m/S 755 mmHg 94%
    17:00 -2°C° 0 mm 1 m/S 755 mmHg 94%
    18:00 -2°C° 0 mm 1 m/S 756 mmHg 95%
    19:00 -2°C° 0 mm 1 m/S 756 mmHg 95%
    20:00 -1°C° 0 mm 1 m/S 756 mmHg 95%
    21:00 -3°C° 0 mm 2 m/S 756 mmHg 95%
    22:00 -3°C° 0 mm 2 m/S 757 mmHg 95%
    23:00 -3°C° 0 mm 2 m/S 757 mmHg 95%
    Mehr zeigen